Year,Month,Day,Hour,Minute,Value (Times are PST for windspeed in km/hr)
2020,01,14,00,00,9.00
2020,01,14,00,01,5.50
2020,01,14,00,02,0.80
2020,01,14,00,03,2.10
2020,01,14,00,04,2.10
2020,01,14,00,05,4.50
2020,01,14,00,06,2.60
2020,01,14,00,07,3.30
2020,01,14,00,08,3.70
2020,01,14,00,09,3.70
2020,01,14,00,10,3.40
2020,01,14,00,11,7.70
2020,01,14,00,12,7.60
2020,01,14,00,13,5.90
2020,01,14,00,14,2.20
2020,01,14,00,15,3.80
2020,01,14,00,16,4.70
2020,01,14,00,17,2.00
2020,01,14,00,18,4.80
2020,01,14,00,19,6.40
2020,01,14,00,20,8.80
2020,01,14,00,21,7.60
2020,01,14,00,22,8.30
2020,01,14,00,23,8.20
2020,01,14,00,24,8.50
2020,01,14,00,25,5.60
2020,01,14,00,26,8.90
2020,01,14,00,27,10.80
2020,01,14,00,28,9.40
2020,01,14,00,29,11.40
2020,01,14,00,30,7.90
2020,01,14,00,31,9.20
2020,01,14,00,32,8.70
2020,01,14,00,33,8.80
2020,01,14,00,34,6.70
2020,01,14,00,35,9.30
2020,01,14,00,36,10.80
2020,01,14,00,37,8.90
2020,01,14,00,38,7.00
2020,01,14,00,39,6.70
2020,01,14,00,40,5.60
2020,01,14,00,41,11.90
2020,01,14,00,42,9.10
2020,01,14,00,43,5.20
2020,01,14,00,44,6.80
2020,01,14,00,45,6.90
2020,01,14,00,46,5.30
2020,01,14,00,47,6.90
2020,01,14,00,48,7.10
2020,01,14,00,49,8.00
2020,01,14,00,50,9.00
2020,01,14,00,51,9.10
2020,01,14,00,52,6.90
2020,01,14,00,53,5.80
2020,01,14,00,54,7.40
2020,01,14,00,55,4.30
2020,01,14,00,56,4.00
2020,01,14,00,57,4.70
2020,01,14,00,58,7.90
2020,01,14,00,59,7.20
2020,01,14,01,00,6.20
2020,01,14,01,01,9.70
2020,01,14,01,02,7.60
2020,01,14,01,03,4.20
2020,01,14,01,04,9.40
2020,01,14,01,05,7.80
2020,01,14,01,06,5.80
2020,01,14,01,07,7.20
2020,01,14,01,08,5.40
2020,01,14,01,09,6.50
2020,01,14,01,10,6.20
2020,01,14,01,11,6.70
2020,01,14,01,12,5.60
2020,01,14,01,13,6.10
2020,01,14,01,14,6.40
2020,01,14,01,15,6.10
2020,01,14,01,16,6.90
2020,01,14,01,17,5.90
2020,01,14,01,18,5.20
2020,01,14,01,19,3.50
2020,01,14,01,20,5.70
2020,01,14,01,21,4.40
2020,01,14,01,22,9.30
2020,01,14,01,23,9.70
2020,01,14,01,24,6.40
2020,01,14,01,25,7.20
2020,01,14,01,26,7.60
2020,01,14,01,27,6.30
2020,01,14,01,28,6.90
2020,01,14,01,29,8.20
2020,01,14,01,30,3.10
2020,01,14,01,31,2.80
2020,01,14,01,32,2.90
2020,01,14,01,33,3.50
2020,01,14,01,34,5.10
2020,01,14,01,35,5.00
2020,01,14,01,36,3.70
2020,01,14,01,37,5.00
2020,01,14,01,38,5.20
2020,01,14,01,39,3.40
2020,01,14,01,40,3.60
2020,01,14,01,41,5.00
2020,01,14,01,42,4.90
2020,01,14,01,43,3.30
2020,01,14,01,44,3.10
2020,01,14,01,45,2.10
2020,01,14,01,46,4.50
2020,01,14,01,47,3.80
2020,01,14,01,48,4.70
2020,01,14,01,49,4.40
2020,01,14,01,50,7.20
2020,01,14,01,51,7.20
2020,01,14,01,52,6.40
2020,01,14,01,53,4.80
2020,01,14,01,54,5.30
2020,01,14,01,55,5.80
2020,01,14,01,56,1.90
2020,01,14,01,57,2.50
2020,01,14,01,58,4.00
2020,01,14,01,59,5.80
2020,01,14,02,00,2.40
2020,01,14,02,01,3.50
2020,01,14,02,02,6.80
2020,01,14,02,03,6.40
2020,01,14,02,04,6.30
2020,01,14,02,05,5.40
2020,01,14,02,06,6.10
2020,01,14,02,07,5.90
2020,01,14,02,08,6.20
2020,01,14,02,09,7.50
2020,01,14,02,10,8.10
2020,01,14,02,11,8.00
2020,01,14,02,12,8.90
2020,01,14,02,13,7.50
2020,01,14,02,14,7.60
2020,01,14,02,15,7.40
2020,01,14,02,16,8.40
2020,01,14,02,17,8.40
2020,01,14,02,18,5.00
2020,01,14,02,19,7.80
2020,01,14,02,20,5.10
2020,01,14,02,21,6.60
2020,01,14,02,22,6.50
2020,01,14,02,23,7.30
2020,01,14,02,24,6.50
2020,01,14,02,25,8.20
2020,01,14,02,26,7.10
2020,01,14,02,27,8.10
2020,01,14,02,28,9.70
2020,01,14,02,29,7.10
2020,01,14,02,30,8.80
2020,01,14,02,31,8.00
2020,01,14,02,32,5.60
2020,01,14,02,33,8.70
2020,01,14,02,34,7.30
2020,01,14,02,35,9.20
2020,01,14,02,36,11.70
2020,01,14,02,37,9.70
2020,01,14,02,38,11.90
2020,01,14,02,39,10.50
2020,01,14,02,40,8.00
2020,01,14,02,41,7.60
2020,01,14,02,42,6.50
2020,01,14,02,43,7.00
2020,01,14,02,44,8.90
2020,01,14,02,45,8.40
2020,01,14,02,46,12.40
2020,01,14,02,47,10.90
2020,01,14,02,48,11.30
2020,01,14,02,49,10.90
2020,01,14,02,50,8.40
2020,01,14,02,51,9.30
2020,01,14,02,52,8.60
2020,01,14,02,53,11.50
2020,01,14,02,54,10.10
2020,01,14,02,55,7.30
2020,01,14,02,56,6.30
2020,01,14,02,57,4.50
2020,01,14,02,58,7.80
2020,01,14,02,59,6.70
2020,01,14,03,00,6.70
2020,01,14,03,01,7.10
2020,01,14,03,02,8.60
2020,01,14,03,03,7.60
2020,01,14,03,04,2.60
2020,01,14,03,05,5.10
2020,01,14,03,06,3.20
2020,01,14,03,07,6.30
2020,01,14,03,08,4.00
2020,01,14,03,09,7.40
2020,01,14,03,10,7.50
2020,01,14,03,11,9.90
2020,01,14,03,12,7.90
2020,01,14,03,13,7.50
2020,01,14,03,14,5.30
2020,01,14,03,15,6.20
2020,01,14,03,16,5.50
2020,01,14,03,17,5.90
2020,01,14,03,18,6.70
2020,01,14,03,19,6.20
2020,01,14,03,20,5.40
2020,01,14,03,21,6.80
2020,01,14,03,22,6.10
2020,01,14,03,23,5.80
2020,01,14,03,24,5.90
2020,01,14,03,25,4.90
2020,01,14,03,26,6.00
2020,01,14,03,27,7.60
2020,01,14,03,28,5.90
2020,01,14,03,29,5.20
2020,01,14,03,30,5.50
2020,01,14,03,31,7.40
2020,01,14,03,32,4.40
2020,01,14,03,33,7.00
2020,01,14,03,34,5.40
2020,01,14,03,35,3.60
2020,01,14,03,36,2.80
2020,01,14,03,37,4.40
2020,01,14,03,38,4.00
2020,01,14,03,39,3.50
2020,01,14,03,40,5.80
2020,01,14,03,41,3.60
2020,01,14,03,42,3.90
2020,01,14,03,43,3.00
2020,01,14,03,44,4.10
2020,01,14,03,45,6.50
2020,01,14,03,46,6.40
2020,01,14,03,47,5.30
2020,01,14,03,48,5.90
2020,01,14,03,49,8.70
2020,01,14,03,50,7.00
2020,01,14,03,51,5.10
2020,01,14,03,52,5.20
2020,01,14,03,53,6.10
2020,01,14,03,54,4.20
2020,01,14,03,55,3.90
2020,01,14,03,56,3.10
2020,01,14,03,57,5.10
2020,01,14,03,58,3.50
2020,01,14,03,59,0.80
2020,01,14,04,00,0.00
2020,01,14,04,01,0.10
2020,01,14,04,02,1.90
2020,01,14,04,03,3.40
2020,01,14,04,04,4.50
2020,01,14,04,05,6.30
2020,01,14,04,06,5.20
2020,01,14,04,07,5.80
2020,01,14,04,08,3.80
2020,01,14,04,09,2.80
2020,01,14,04,10,4.20
2020,01,14,04,11,3.60
2020,01,14,04,12,5.20
2020,01,14,04,13,7.10
2020,01,14,04,14,5.70
2020,01,14,04,15,5.40
2020,01,14,04,16,7.20
2020,01,14,04,17,5.30
2020,01,14,04,18,6.20
2020,01,14,04,19,5.80
2020,01,14,04,20,5.60
2020,01,14,04,21,8.10
2020,01,14,04,22,7.30
2020,01,14,04,23,5.00
2020,01,14,04,24,5.80
2020,01,14,04,25,6.80
2020,01,14,04,26,5.80
2020,01,14,04,27,6.00
2020,01,14,04,28,8.50
2020,01,14,04,29,7.10
2020,01,14,04,30,8.90
2020,01,14,04,31,9.40
2020,01,14,04,32,9.60
2020,01,14,04,33,5.40
2020,01,14,04,34,8.10
2020,01,14,04,35,11.70
2020,01,14,04,36,11.50
2020,01,14,04,37,12.50
2020,01,14,04,38,8.70
2020,01,14,04,39,9.40
2020,01,14,04,40,7.20
2020,01,14,04,41,8.60
2020,01,14,04,42,10.40
2020,01,14,04,43,11.30
2020,01,14,04,44,10.30
2020,01,14,04,45,8.90
2020,01,14,04,46,6.00
2020,01,14,04,47,11.30
2020,01,14,04,48,9.50
2020,01,14,04,49,6.70
2020,01,14,04,50,5.00
2020,01,14,04,51,4.80
2020,01,14,04,52,6.30
2020,01,14,04,53,6.30
2020,01,14,04,54,7.10
2020,01,14,04,55,7.50
2020,01,14,04,56,7.30
2020,01,14,04,57,7.10
2020,01,14,04,58,6.10
2020,01,14,04,59,7.60
2020,01,14,05,00,7.70
2020,01,14,05,01,5.30
2020,01,14,05,02,3.00
2020,01,14,05,03,4.40
2020,01,14,05,04,9.30
2020,01,14,05,05,8.50
2020,01,14,05,06,8.10
2020,01,14,05,07,4.90
2020,01,14,05,08,4.70
2020,01,14,05,09,5.90
2020,01,14,05,10,6.90
2020,01,14,05,11,7.40
2020,01,14,05,12,6.40
2020,01,14,05,13,10.00
2020,01,14,05,14,8.50
2020,01,14,05,15,6.00
2020,01,14,05,16,7.10
2020,01,14,05,17,7.70
2020,01,14,05,18,5.60
2020,01,14,05,19,4.70
2020,01,14,05,20,9.50
2020,01,14,05,21,5.40
2020,01,14,05,22,6.00
2020,01,14,05,23,8.40
2020,01,14,05,24,9.60
2020,01,14,05,25,9.50
2020,01,14,05,26,9.50
2020,01,14,05,27,8.80
2020,01,14,05,28,9.70
2020,01,14,05,29,8.40
2020,01,14,05,30,6.90
2020,01,14,05,31,4.80
2020,01,14,05,32,3.20
2020,01,14,05,33,2.30
2020,01,14,05,34,2.10
2020,01,14,05,35,5.00
2020,01,14,05,36,5.30
2020,01,14,05,37,5.10
2020,01,14,05,38,5.20
2020,01,14,05,39,6.70
2020,01,14,05,40,6.90
2020,01,14,05,41,5.00
2020,01,14,05,42,3.40
2020,01,14,05,43,3.40
2020,01,14,05,44,7.40
2020,01,14,05,45,5.10
2020,01,14,05,46,6.90
2020,01,14,05,47,7.40
2020,01,14,05,48,8.60
2020,01,14,05,49,8.50
2020,01,14,05,50,7.40
2020,01,14,05,51,6.20
2020,01,14,05,52,3.90
2020,01,14,05,53,3.80
2020,01,14,05,54,3.80
2020,01,14,05,55,4.10
2020,01,14,05,56,4.10
2020,01,14,05,57,6.20
2020,01,14,05,58,4.80
2020,01,14,05,59,4.00
2020,01,14,06,00,3.30
2020,01,14,06,01,3.80
2020,01,14,06,02,4.50
2020,01,14,06,03,4.40
2020,01,14,06,04,8.60
2020,01,14,06,05,6.10
2020,01,14,06,06,5.10
2020,01,14,06,07,3.90
2020,01,14,06,08,4.40
2020,01,14,06,09,5.40
2020,01,14,06,10,4.40
2020,01,14,06,11,5.10
2020,01,14,06,12,1.30
2020,01,14,06,13,0.20
2020,01,14,06,14,3.10
2020,01,14,06,15,2.50
2020,01,14,06,16,5.60
2020,01,14,06,17,6.40
2020,01,14,06,18,5.50
2020,01,14,06,19,7.10
2020,01,14,06,20,8.30
2020,01,14,06,21,7.70
2020,01,14,06,22,3.70
2020,01,14,06,23,3.70
2020,01,14,06,24,3.60
2020,01,14,06,25,6.10
2020,01,14,06,26,3.10
2020,01,14,06,27,3.50
2020,01,14,06,28,6.00
2020,01,14,06,29,5.60
2020,01,14,06,30,9.40
2020,01,14,06,31,7.10
2020,01,14,06,32,7.50
2020,01,14,06,33,7.50
2020,01,14,06,34,5.40
2020,01,14,06,35,6.00
2020,01,14,06,36,7.10
2020,01,14,06,37,4.90
2020,01,14,06,38,10.00
2020,01,14,06,39,8.60
2020,01,14,06,40,9.70
2020,01,14,06,41,10.50
2020,01,14,06,42,9.30
2020,01,14,06,43,8.20
2020,01,14,06,44,5.00
2020,01,14,06,45,7.00
2020,01,14,06,46,7.10
2020,01,14,06,47,7.20
2020,01,14,06,48,4.50
2020,01,14,06,49,5.20
2020,01,14,06,50,8.20
2020,01,14,06,51,6.70
2020,01,14,06,52,7.00
2020,01,14,06,53,6.80
2020,01,14,06,54,6.30
2020,01,14,06,55,7.40
2020,01,14,06,56,4.70
2020,01,14,06,57,3.50
2020,01,14,06,58,2.90
2020,01,14,06,59,4.20
2020,01,14,07,00,4.60
2020,01,14,07,01,4.10
2020,01,14,07,02,5.30
2020,01,14,07,03,5.50
2020,01,14,07,04,5.90
2020,01,14,07,05,4.30
2020,01,14,07,06,2.20
2020,01,14,07,07,3.50
2020,01,14,07,08,1.90
2020,01,14,07,09,1.60
2020,01,14,07,10,2.10
2020,01,14,07,11,3.50
2020,01,14,07,12,2.70
2020,01,14,07,13,1.10
2020,01,14,07,14,1.30
2020,01,14,07,15,1.20
2020,01,14,07,16,1.20
2020,01,14,07,17,2.70
2020,01,14,07,18,4.00
2020,01,14,07,19,1.90
2020,01,14,07,20,1.30
2020,01,14,07,21,1.40
2020,01,14,07,22,0.50
2020,01,14,07,23,0.00
2020,01,14,07,24,0.10
2020,01,14,07,25,0.00
2020,01,14,07,26,0.00
2020,01,14,07,27,0.00
2020,01,14,07,28,0.00
2020,01,14,07,29,0.50
2020,01,14,07,30,3.60
2020,01,14,07,31,6.30
2020,01,14,07,32,6.40
2020,01,14,07,33,7.90
2020,01,14,07,34,6.30
2020,01,14,07,35,4.20
2020,01,14,07,36,6.00
2020,01,14,07,37,10.20
2020,01,14,07,38,7.50
2020,01,14,07,39,9.20
2020,01,14,07,40,11.60
2020,01,14,07,41,11.10
2020,01,14,07,42,5.60
2020,01,14,07,43,4.10
2020,01,14,07,44,5.40
2020,01,14,07,45,6.80
2020,01,14,07,46,4.70
2020,01,14,07,47,5.40
2020,01,14,07,48,7.70
2020,01,14,07,49,3.80
2020,01,14,07,50,3.60
2020,01,14,07,51,3.30
2020,01,14,07,52,5.10
2020,01,14,07,53,5.00
2020,01,14,07,54,6.70
2020,01,14,07,55,6.50
2020,01,14,07,56,7.90
2020,01,14,07,57,9.50
2020,01,14,07,58,10.00
2020,01,14,07,59,10.00
2020,01,14,08,00,10.50
2020,01,14,08,01,10.60
2020,01,14,08,02,9.20
2020,01,14,08,03,8.60
2020,01,14,08,04,7.50
2020,01,14,08,05,6.70
2020,01,14,08,06,7.80
2020,01,14,08,07,7.80
2020,01,14,08,08,8.40
2020,01,14,08,09,7.10
2020,01,14,08,10,8.30
2020,01,14,08,11,7.70
2020,01,14,08,12,6.00
2020,01,14,08,13,8.90
2020,01,14,08,14,10.00
2020,01,14,08,15,9.80
2020,01,14,08,16,7.30
2020,01,14,08,17,8.30
2020,01,14,08,18,4.00
2020,01,14,08,19,10.50
2020,01,14,08,20,11.10
2020,01,14,08,21,13.80
2020,01,14,08,22,13.50
2020,01,14,08,23,10.90
2020,01,14,08,24,13.30
2020,01,14,08,25,9.60
2020,01,14,08,26,10.90
2020,01,14,08,27,8.10
2020,01,14,08,28,11.30
2020,01,14,08,29,8.00
2020,01,14,08,30,17.30
2020,01,14,08,31,13.60
2020,01,14,08,32,11.10
2020,01,14,08,33,11.20
2020,01,14,08,34,9.20
2020,01,14,08,35,13.00
2020,01,14,08,36,7.90
2020,01,14,08,37,8.40
2020,01,14,08,38,15.00
2020,01,14,08,39,14.10
2020,01,14,08,40,9.50
2020,01,14,08,41,10.30
2020,01,14,08,42,17.00
2020,01,14,08,43,16.20
2020,01,14,08,44,14.20
2020,01,14,08,45,10.90
2020,01,14,08,46,10.00
2020,01,14,08,47,11.30
2020,01,14,08,48,11.50
2020,01,14,08,49,12.10
2020,01,14,08,50,15.40
2020,01,14,08,51,13.00
2020,01,14,08,52,14.50
2020,01,14,08,53,15.40
2020,01,14,08,54,12.10
2020,01,14,08,55,13.20
2020,01,14,08,56,14.50
2020,01,14,08,57,15.70
2020,01,14,08,58,14.20
2020,01,14,08,59,15.40
2020,01,14,09,00,14.90
2020,01,14,09,01,12.10
2020,01,14,09,02,13.20
2020,01,14,09,03,11.20
2020,01,14,09,04,9.40
2020,01,14,09,05,7.80
2020,01,14,09,06,11.60
2020,01,14,09,07,10.50
2020,01,14,09,08,9.90
2020,01,14,09,09,4.80
2020,01,14,09,10,5.20
2020,01,14,09,11,10.90
2020,01,14,09,12,8.80
2020,01,14,09,13,12.00
2020,01,14,09,14,8.30
2020,01,14,09,15,12.30
2020,01,14,09,16,11.30
2020,01,14,09,17,12.10
2020,01,14,09,18,12.40
2020,01,14,09,19,8.70
2020,01,14,09,20,11.90
2020,01,14,09,21,13.60
2020,01,14,09,22,13.00
2020,01,14,09,23,12.90
2020,01,14,09,24,8.70
2020,01,14,09,25,11.60
2020,01,14,09,26,12.30
2020,01,14,09,27,8.00
2020,01,14,09,28,11.00
2020,01,14,09,29,14.90
2020,01,14,09,30,7.90
2020,01,14,09,31,11.50
2020,01,14,09,32,11.00
2020,01,14,09,33,8.90
2020,01,14,09,34,6.80
2020,01,14,09,35,9.30
2020,01,14,09,36,7.20
2020,01,14,09,37,6.40
2020,01,14,09,38,4.60
2020,01,14,09,39,9.40
2020,01,14,09,40,11.70
2020,01,14,09,41,9.90
2020,01,14,09,42,10.70
2020,01,14,09,43,9.10
2020,01,14,09,44,7.60
2020,01,14,09,45,8.90
2020,01,14,09,46,11.30
2020,01,14,09,47,9.90
2020,01,14,09,48,7.10
2020,01,14,09,49,8.10
2020,01,14,09,50,10.90
2020,01,14,09,51,14.60
2020,01,14,09,52,11.00
2020,01,14,09,53,8.80
2020,01,14,09,54,7.10
2020,01,14,09,55,6.20
2020,01,14,09,56,5.30
2020,01,14,09,57,8.40
2020,01,14,09,58,10.70
2020,01,14,09,59,8.10
2020,01,14,10,00,9.70
2020,01,14,10,01,6.40
2020,01,14,10,02,8.40
2020,01,14,10,03,11.10
2020,01,14,10,04,11.40
2020,01,14,10,05,7.70
2020,01,14,10,06,7.50
2020,01,14,10,07,10.20
2020,01,14,10,08,13.50
2020,01,14,10,09,12.50
2020,01,14,10,10,14.20
2020,01,14,10,11,11.50
2020,01,14,10,12,10.00
2020,01,14,10,13,12.10
2020,01,14,10,14,12.90
2020,01,14,10,15,9.30
2020,01,14,10,16,6.50
2020,01,14,10,17,6.00
2020,01,14,10,18,13.10
2020,01,14,10,19,7.40
2020,01,14,10,20,10.10
2020,01,14,10,21,8.20
2020,01,14,10,22,7.40
2020,01,14,10,23,8.20
2020,01,14,10,24,10.70
2020,01,14,10,25,9.80
2020,01,14,10,26,8.10
2020,01,14,10,27,11.90
2020,01,14,10,28,8.90
2020,01,14,10,29,11.20
2020,01,14,10,30,13.00
2020,01,14,10,31,10.20
2020,01,14,10,32,9.40
2020,01,14,10,33,8.60
2020,01,14,10,34,9.80
2020,01,14,10,35,9.00
2020,01,14,10,36,8.10
2020,01,14,10,37,13.80
2020,01,14,10,38,12.00
2020,01,14,10,39,15.70
2020,01,14,10,40,13.50
2020,01,14,10,41,9.20
2020,01,14,10,42,8.90
2020,01,14,10,43,8.70
2020,01,14,10,44,11.70
2020,01,14,10,45,10.00
2020,01,14,10,46,12.00
2020,01,14,10,47,9.40
2020,01,14,10,48,11.60
2020,01,14,10,49,10.30
2020,01,14,10,50,11.70
2020,01,14,10,51,10.20
2020,01,14,10,52,8.50
2020,01,14,10,53,14.90
2020,01,14,10,54,10.50
2020,01,14,10,55,14.30
2020,01,14,10,56,16.10
2020,01,14,10,57,13.70
2020,01,14,10,58,16.00
2020,01,14,10,59,14.80
2020,01,14,11,00,9.20
2020,01,14,11,01,19.20
2020,01,14,11,02,18.90
2020,01,14,11,03,13.40
2020,01,14,11,04,14.20
2020,01,14,11,05,13.00
2020,01,14,11,06,13.80
2020,01,14,11,07,9.70
2020,01,14,11,08,14.80
2020,01,14,11,09,16.20
2020,01,14,11,10,18.30
2020,01,14,11,11,13.80
2020,01,14,11,12,11.80
2020,01,14,11,13,14.80
2020,01,14,11,14,12.70
2020,01,14,11,15,8.20
2020,01,14,11,16,7.90
2020,01,14,11,17,10.40
2020,01,14,11,18,7.20
2020,01,14,11,19,10.10
2020,01,14,11,20,11.10
2020,01,14,11,21,10.30
2020,01,14,11,22,8.30
2020,01,14,11,23,7.00
2020,01,14,11,24,10.60
2020,01,14,11,25,8.00
2020,01,14,11,26,10.20
2020,01,14,11,27,15.10
2020,01,14,11,28,10.70
2020,01,14,11,29,5.40
2020,01,14,11,30,5.30
2020,01,14,11,31,5.90
2020,01,14,11,32,11.30
2020,01,14,11,33,10.10
2020,01,14,11,34,10.00
2020,01,14,11,35,12.30
2020,01,14,11,36,11.90
2020,01,14,11,37,10.80
2020,01,14,11,38,12.40
2020,01,14,11,39,18.50
2020,01,14,11,40,15.50
2020,01,14,11,41,15.30
2020,01,14,11,42,15.80
2020,01,14,11,43,13.20
2020,01,14,11,44,17.50
2020,01,14,11,45,14.60
2020,01,14,11,46,14.10
2020,01,14,11,47,16.70
2020,01,14,11,48,14.40
2020,01,14,11,49,13.70
2020,01,14,11,50,12.70
2020,01,14,11,51,9.70
2020,01,14,11,52,7.90
2020,01,14,11,53,7.10
2020,01,14,11,54,7.50
2020,01,14,11,55,9.40
2020,01,14,11,56,12.60
2020,01,14,11,57,13.80
2020,01,14,11,58,10.80
2020,01,14,11,59,8.80
2020,01,14,12,00,11.70
2020,01,14,12,01,14.90
2020,01,14,12,02,17.40
2020,01,14,12,03,11.30
2020,01,14,12,04,13.00
2020,01,14,12,05,15.50
2020,01,14,12,06,10.30
2020,01,14,12,07,13.40
2020,01,14,12,08,15.20
2020,01,14,12,09,13.80
2020,01,14,12,10,12.10
2020,01,14,12,11,12.00
2020,01,14,12,12,16.00
2020,01,14,12,13,14.00
2020,01,14,12,14,12.00
2020,01,14,12,15,11.70
2020,01,14,12,16,9.10
2020,01,14,12,17,10.50
2020,01,14,12,18,9.60
2020,01,14,12,19,12.40
2020,01,14,12,20,14.00
2020,01,14,12,21,15.80
2020,01,14,12,22,17.10
2020,01,14,12,23,14.60
2020,01,14,12,24,13.40
2020,01,14,12,25,13.10
2020,01,14,12,26,16.90
2020,01,14,12,27,10.50
2020,01,14,12,28,17.50
2020,01,14,12,29,18.00
2020,01,14,12,30,13.00
2020,01,14,12,31,13.50
2020,01,14,12,32,9.50
2020,01,14,12,33,15.70
2020,01,14,12,34,16.90
2020,01,14,12,35,12.20
2020,01,14,12,36,12.10
2020,01,14,12,37,13.80
2020,01,14,12,38,9.00
2020,01,14,12,39,14.30
2020,01,14,12,40,18.60
2020,01,14,12,41,14.30
2020,01,14,12,42,11.00
2020,01,14,12,43,8.50
2020,01,14,12,44,7.30
2020,01,14,12,45,9.60
2020,01,14,12,46,7.20
2020,01,14,12,47,9.40
2020,01,14,12,48,9.00
2020,01,14,12,49,11.30
2020,01,14,12,50,8.20
2020,01,14,12,51,9.90
2020,01,14,12,52,11.00
2020,01,14,12,53,11.00
2020,01,14,12,54,14.10
2020,01,14,12,55,14.30
2020,01,14,12,56,17.40
2020,01,14,12,57,17.10
2020,01,14,12,58,19.00
2020,01,14,12,59,18.20
2020,01,14,13,00,10.70
2020,01,14,13,01,12.90
2020,01,14,13,02,17.60
2020,01,14,13,03,12.70
2020,01,14,13,04,9.30
2020,01,14,13,05,7.50
2020,01,14,13,06,7.40
2020,01,14,13,07,12.00
2020,01,14,13,08,11.00
2020,01,14,13,09,13.30
2020,01,14,13,10,11.20
2020,01,14,13,11,15.40
2020,01,14,13,12,15.30
2020,01,14,13,13,15.30
2020,01,14,13,14,12.60
2020,01,14,13,15,15.60
2020,01,14,13,16,10.40
2020,01,14,13,17,9.40
2020,01,14,13,18,8.10
2020,01,14,13,19,6.90
2020,01,14,13,20,9.40
2020,01,14,13,21,9.70
2020,01,14,13,22,12.70
2020,01,14,13,23,13.40
2020,01,14,13,24,11.60
2020,01,14,13,25,11.60
2020,01,14,13,26,12.00
2020,01,14,13,27,11.90
2020,01,14,13,28,8.80
2020,01,14,13,29,11.30
2020,01,14,13,30,11.60
2020,01,14,13,31,13.40
2020,01,14,13,32,12.70
2020,01,14,13,33,13.60
2020,01,14,13,34,8.10
2020,01,14,13,35,6.20
2020,01,14,13,36,8.20
2020,01,14,13,37,9.00
2020,01,14,13,38,9.10
2020,01,14,13,39,14.30
2020,01,14,13,40,11.00
2020,01,14,13,41,13.70
2020,01,14,13,42,7.40
2020,01,14,13,43,11.00
2020,01,14,13,44,9.70
2020,01,14,13,45,7.90
2020,01,14,13,46,6.90
2020,01,14,13,47,7.30
2020,01,14,13,48,9.90
2020,01,14,13,49,11.70
2020,01,14,13,50,11.10
2020,01,14,13,51,11.20
2020,01,14,13,52,9.00
2020,01,14,13,53,6.40
2020,01,14,13,54,10.30
2020,01,14,13,55,10.60
2020,01,14,13,56,10.00
2020,01,14,13,57,9.40
2020,01,14,13,58,10.00
2020,01,14,13,59,6.20
2020,01,14,14,00,6.30
2020,01,14,14,01,7.70
2020,01,14,14,02,7.40
2020,01,14,14,03,5.40
2020,01,14,14,04,3.10
2020,01,14,14,05,5.60
2020,01,14,14,06,1.80
2020,01,14,14,07,3.10
2020,01,14,14,08,4.60
2020,01,14,14,09,6.50
2020,01,14,14,10,8.50
2020,01,14,14,11,4.90
2020,01,14,14,12,6.60
2020,01,14,14,13,7.50
2020,01,14,14,14,5.60
2020,01,14,14,15,3.80
2020,01,14,14,16,6.70
2020,01,14,14,17,7.90
2020,01,14,14,18,8.40
2020,01,14,14,19,10.10
2020,01,14,14,20,10.00
2020,01,14,14,21,4.80
2020,01,14,14,22,7.40
2020,01,14,14,23,7.40
2020,01,14,14,24,10.60
2020,01,14,14,25,9.50
2020,01,14,14,26,7.70
2020,01,14,14,27,9.00
2020,01,14,14,28,8.90
2020,01,14,14,29,7.60
2020,01,14,14,30,7.50
2020,01,14,14,31,8.60
2020,01,14,14,32,10.20
2020,01,14,14,33,7.70
2020,01,14,14,34,5.70
2020,01,14,14,35,8.00
2020,01,14,14,36,8.10
2020,01,14,14,37,6.10
2020,01,14,14,38,6.40
2020,01,14,14,39,6.80
2020,01,14,14,40,8.30
2020,01,14,14,41,10.60
2020,01,14,14,42,7.80
2020,01,14,14,43,9.40
2020,01,14,14,44,9.40
2020,01,14,14,45,5.50
2020,01,14,14,46,7.30
2020,01,14,14,47,5.20
2020,01,14,14,48,5.50
2020,01,14,14,49,4.50
2020,01,14,14,50,5.80
2020,01,14,14,51,5.00
2020,01,14,14,52,4.60
2020,01,14,14,53,6.10
2020,01,14,14,54,4.40
2020,01,14,14,55,5.20
2020,01,14,14,56,8.40
2020,01,14,14,57,7.00
2020,01,14,14,58,9.20
2020,01,14,14,59,8.50
2020,01,14,15,00,7.40
2020,01,14,15,01,9.90
2020,01,14,15,02,6.40
2020,01,14,15,03,5.10
2020,01,14,15,04,5.00
2020,01,14,15,05,6.00
2020,01,14,15,06,5.10
2020,01,14,15,07,5.60
2020,01,14,15,08,4.90
2020,01,14,15,09,5.60
2020,01,14,15,10,9.00
2020,01,14,15,11,7.60
2020,01,14,15,12,8.90
2020,01,14,15,13,10.70
2020,01,14,15,14,9.20
2020,01,14,15,15,6.70
2020,01,14,15,16,7.40
2020,01,14,15,17,4.50
2020,01,14,15,18,3.10
2020,01,14,15,19,5.40
2020,01,14,15,20,12.00
2020,01,14,15,21,9.00
2020,01,14,15,22,9.50
2020,01,14,15,23,11.30
2020,01,14,15,24,7.40
2020,01,14,15,25,6.10
2020,01,14,15,26,8.20
2020,01,14,15,27,5.70
2020,01,14,15,28,8.50
2020,01,14,15,29,2.80
2020,01,14,15,30,3.80
2020,01,14,15,31,2.50
2020,01,14,15,32,7.20
2020,01,14,15,33,11.30
2020,01,14,15,34,10.60
2020,01,14,15,35,9.50
2020,01,14,15,36,8.40
2020,01,14,15,37,6.90
2020,01,14,15,38,4.20
2020,01,14,15,39,6.90
2020,01,14,15,40,5.30
2020,01,14,15,41,5.60
2020,01,14,15,42,5.90
2020,01,14,15,43,6.00
2020,01,14,15,44,7.40
2020,01,14,15,45,5.10
2020,01,14,15,46,6.70
2020,01,14,15,47,6.80
2020,01,14,15,48,7.90
2020,01,14,15,49,8.70
2020,01,14,15,50,9.30
2020,01,14,15,51,7.80
2020,01,14,15,52,8.60
2020,01,14,15,53,5.80
2020,01,14,15,54,6.30
2020,01,14,15,55,5.50
2020,01,14,15,56,9.00
2020,01,14,15,57,8.90
2020,01,14,15,58,7.70
2020,01,14,15,59,10.70
2020,01,14,16,00,6.10
2020,01,14,16,01,7.80
2020,01,14,16,02,10.30
2020,01,14,16,03,8.90
2020,01,14,16,04,8.20
2020,01,14,16,05,7.40
2020,01,14,16,06,8.10
2020,01,14,16,07,5.40
2020,01,14,16,08,5.40
2020,01,14,16,09,9.30
2020,01,14,16,10,9.30
2020,01,14,16,11,6.00
2020,01,14,16,12,8.70
2020,01,14,16,13,6.20
2020,01,14,16,14,7.80
2020,01,14,16,15,6.00
2020,01,14,16,16,7.80
2020,01,14,16,17,7.90
2020,01,14,16,18,9.40
2020,01,14,16,19,8.90
2020,01,14,16,20,8.80
2020,01,14,16,21,5.30
2020,01,14,16,22,7.70
2020,01,14,16,23,10.00
2020,01,14,16,24,12.40
2020,01,14,16,25,10.80
2020,01,14,16,26,10.20
2020,01,14,16,27,8.90
2020,01,14,16,28,9.10
2020,01,14,16,29,7.90
2020,01,14,16,30,9.10
2020,01,14,16,31,9.40
2020,01,14,16,32,7.50
2020,01,14,16,33,5.10
2020,01,14,16,34,5.60
2020,01,14,16,35,5.80
2020,01,14,16,36,6.50
2020,01,14,16,37,6.20
2020,01,14,16,38,6.30
2020,01,14,16,39,5.80
2020,01,14,16,40,7.90
2020,01,14,16,41,5.30
2020,01,14,16,42,6.30
2020,01,14,16,43,4.30
2020,01,14,16,44,4.20
2020,01,14,16,45,4.30
2020,01,14,16,46,8.70
2020,01,14,16,47,9.30
2020,01,14,16,48,8.40
2020,01,14,16,49,8.20
2020,01,14,16,50,5.60
2020,01,14,16,51,8.90
2020,01,14,16,52,8.70
2020,01,14,16,53,7.60
2020,01,14,16,54,8.10
2020,01,14,16,55,7.30
2020,01,14,16,56,7.70
2020,01,14,16,57,6.50
2020,01,14,16,58,7.40
2020,01,14,16,59,9.40
2020,01,14,17,00,7.40
2020,01,14,17,01,7.50
2020,01,14,17,02,8.00
2020,01,14,17,03,9.90
2020,01,14,17,04,14.00
2020,01,14,17,05,11.30
2020,01,14,17,06,10.70
2020,01,14,17,07,11.40
2020,01,14,17,08,10.50
2020,01,14,17,09,10.70
2020,01,14,17,10,7.10
2020,01,14,17,11,10.90
2020,01,14,17,12,9.70
2020,01,14,17,13,10.10
2020,01,14,17,14,13.80
2020,01,14,17,15,10.10
2020,01,14,17,16,11.50
2020,01,14,17,17,14.00
2020,01,14,17,18,8.70
2020,01,14,17,19,13.80
2020,01,14,17,20,13.60
2020,01,14,17,21,16.20
2020,01,14,17,22,13.90
2020,01,14,17,23,14.10
2020,01,14,17,24,11.30
2020,01,14,17,25,8.90
2020,01,14,17,26,12.00
2020,01,14,17,27,9.60
2020,01,14,17,28,13.50
2020,01,14,17,29,11.80
2020,01,14,17,30,8.60
2020,01,14,17,31,7.60
2020,01,14,17,32,11.20
2020,01,14,17,33,15.60
2020,01,14,17,34,10.30
2020,01,14,17,35,8.90
2020,01,14,17,36,8.00
2020,01,14,17,37,10.10
2020,01,14,17,38,13.10
2020,01,14,17,39,9.40
2020,01,14,17,40,14.60
2020,01,14,17,41,16.50
2020,01,14,17,42,11.80
2020,01,14,17,43,13.00
2020,01,14,17,44,13.60
2020,01,14,17,45,10.70
2020,01,14,17,46,10.70
2020,01,14,17,47,13.50
2020,01,14,17,48,14.30
2020,01,14,17,49,13.40
2020,01,14,17,50,14.50
2020,01,14,17,51,8.70
2020,01,14,17,52,9.80